CZ-4 DEB, 26142

Orbit data source: Space-Track

CZ-4 DEB, 26142 is space debris in SSO originally from a launch on Thu, 14 Oct 1999 UTC launched from the Taiyaun Space Center, China (TSC). Debris objects in space refer to the collection of defunct objects orbiting the Earth. Examples of debris include non-operational satellites, rocket bodies, and fragments generated from explosions, collisions, or faulty payload assembly.

Loading next visibility...
Identifier
26142, 1999-057AE
Orbit
SSO
Country
Flag of CNCN / PRC
Related business
Manufacturer
Unknown
Mission
Spacecraft
Bus & Motor
Unknown
Mass
Unknown
Launch date (UTC)
1999-10-14 (26 years ago)
Launch vehicle
Unknown
Launch site
Taiyaun Space Center, China (TSC)
Object type
Payload
Rocket body
Debris
Shape & HBR
Unknown
Radar Cross Section
Small (<0.1 m²)

Expand to show TLE details & history
Last TLE update: 15 hours ago

TLE from 15 hours ago
0 CZ-4 DEB
1 26142U 99057AE  25258.17868116  .00000473  00000-0  30596-3 0  9995
2 26142  98.7560 151.8785 0297764 169.5948 343.4198 13.87453388286271
Epoch: 2025-09-15T04:17Z
TLE epoch observation values (Epoch: 2025-09-15T04:17:18.052Z)
Latitude
27.68397°
Longitude
-82.22378°
Altitude
732.658 km
Speed
7.597 km/s
True Right ascension
22h 25m 57s
True Declination
27° 32' 32"
Sunlit
Object was in full shadow at epoch
Visualization orbit readout
Latitude
Unknown
Longitude
Unknown
Altitude
Unknown
Speed
Unknown
Apparent Right ascension
Unknown
Apparent Declination
Unknown
Sunlit
N/A
Visualization observer readout
Local Sidereal Time
12:18:28
Azimuth
Unknown
Elevation
Unknown
Doppler factor
Unknown
Orbital elements
Apogee altitude
1,152.522 km
Perigee altitude
717.018 km
Semi-major axis
7,312.907 km
Eccentricity
0.02978
Inclination
98.756°
RAAN
151.8785°
Arg. of periapsis
169.5948°
True anomaly
342.41022°
Mean anomaly
343.4198°
Eccentric anomaly
342.91868°
Mean motion
3.47063 °/min
Orbital period
103.73 mins
BSTAR
0.00030596
Loading maneuver chart data...
Computing Atmospheric mass density...
Loading historical data...
Loading historical data...
Loading historical data...
Loading historical data...
Loading historical data...
Loading historical data...
Loading historical data...

Documentation

Showing up to 5 results
|